[[{"header":{"parameterUnit":"m.s-1","parameterCategory":1,"la1":30.2991,"la2":30.254,"lo1":-89.0895,"lo2":-89.0444,"dy":0.0017,"dx":0.0017,"nx":28,"ny":28,"refTime":"2025-03-12T21:00:00:Z","depth":0,"parameterNumber":2,"parameterNumberName":"U-component_of_WINDS"},"data":[0,0,0,0,0,0,0,0,0,0,0,0,0,0,0,0,0,0,0,0,0,0,0,0,0,0,0,0,0,0,0,0,0,0,0,0,0,0,0,0,0,0,0,0,0,0,0,0,0,0,0,0,0,0,0,0,0,0,-0.3102,-0.3103,0,-0.3187,-0.3188,-0.3189,-0.3233,-0.3233,-0.3233,-0.3233,-0.3317,-0.3319,-0.3321,0,0,0,0,0,0,0,0,0,0,0,0,0,-0.2974,-0.2976,-0.3102,-0.3103,-0.3104,-0.3187,-0.3188,-0.3189,-0.3233,-0.3233,-0.3233,-0.3233,-0.3316,-0.3318,-0.3321,0,0,0,0,0,0,0,0,0,0,0,0,0,-0.3041,-0.2977,-0.3102,-0.3136,-0.314,-0.3187,-0.3188,-0.319,-0.3233,-0.3233,-0.3233,-0.3233,-0.3315,-0.3318,-0.3321,-0.334,0,0,-0.3331,-0.3333,0,0,0,0,0,0,0,0,-0.3038,-0.3046,-0.313,-0.3134,-0.3138,-0.32,-0.3174,-0.324,-0.3233,-0.3198,-0.3233,-0.3233,-0.3277,-0.3284,-0.3299,-0.3343,-0.3347,-0.3332,-0.3334,-0.3335,-0.3336,0,0,0,0,0,0,0,-0.3033,-0.3043,-0.3136,-0.3131,-0.3136,-0.3146,-0.3156,-0.3187,-0.3236,-0.3201,-0.3204,-0.3214,-0.328,-0.3296,-0.3302,-0.3348,-0.3332,-0.3334,-0.3336,-0.3338,-0.3413,-0.3413,0,0,0,0,0,0,-0.3023,-0.3038,-0.3133,-0.3138,-0.3087,-0.3148,-0.3159,-0.318,-0.3236,-0.3244,-0.3214,-0.3216,-0.3291,-0.3298,-0.3305,-0.3331,-0.3335,-0.3338,-0.334,-0.3413,-0.3413,-0.3413,0,0,0,0,0,0,-0.302,-0.3031,-0.3129,-0.3089,-0.3103,-0.3151,-0.3173,-0.3181,-0.3198,-0.3246,-0.3254,-0.3222,-0.3291,-0.33,-0.3331,-0.3334,-0.3339,-0.3342,-0.3413,-0.3413,-0.3413,-0.3382,0,0,0,0,0,0,-0.3016,-0.303,-0.3038,-0.3089,-0.3105,-0.3155,-0.3174,-0.3183,-0.3204,-0.3207,-0.3255,-0.3263,-0.3292,-0.3326,-0.3334,-0.3339,-0.3345,-0.3413,-0.3413,-0.3413,-0.3383,-0.3381,-0.338,0,0,0,0,0,-0.3012,-0.3025,-0.3038,-0.3049,-0.3116,-0.3155,-0.3164,-0.3198,-0.3204,-0.3212,-0.3243,-0.3262,-0.3333,-0.3329,-0.3339,-0.3344,-0.3413,-0.3413,-0.3413,-0.3384,-0.3382,-0.338,0,0,0,0,0,0,-0.297,-0.3032,-0.3047,-0.3078,-0.3111,-0.3163,-0.3174,-0.3194,-0.3225,-0.3227,-0.3266,-0.3276,-0.3304,-0.3327,-0.3322,-0.3365,-0.3374,-0.3377,-0.3349,-0.3347,-0.3346,-0.3339,-0.3348,0,0,0,0,0,-0.2965,-0.2993,-0.3045,-0.3066,-0.3083,-0.3125,-0.3144,-0.3167,-0.3203,-0.3217,-0.3249,-0.3282,-0.3312,-0.3331,-0.3361,-0.3387,-0.3398,-0.3395,-0.3393,-0.3392,-0.3393,-0.3409,-0.3409,-0.3413,-0.3413,-0.3413,0,0,-0.2954,-0.2991,-0.3006,-0.3059,-0.3088,-0.3115,-0.3137,-0.3165,-0.3185,-0.322,-0.3253,-0.3278,-0.3317,-0.3346,-0.336,-0.3366,-0.3394,-0.3392,-0.339,-0.3392,-0.3409,-0.3409,-0.3409,-0.3413,-0.3413,-0.3413,0,0,-0.2948,-0.2978,-0.3001,-0.3029,-0.3073,-0.3102,-0.3107,-0.3156,-0.3175,-0.3208,-0.3235,-0.326,-0.331,-0.3338,-0.3358,-0.3364,-0.3383,-0.3372,-0.3363,-0.3378,-0.3378,-0.3378,-0.3381,-0.3381,-0.3373,-0.3373,-0.3373,0,-0.2928,-0.2972,-0.3009,-0.3036,-0.3059,-0.3094,-0.3116,-0.3142,-0.3192,-0.3207,-0.3213,-0.3278,-0.3307,-0.3343,-0.3345,-0.336,-0.3367,-0.3367,-0.3375,-0.3376,-0.3376,-0.3379,-0.338,-0.3372,-0.3372,-0.3372,-0.3372,0,-0.2946,-0.2975,-0.2988,-0.3038,-0.3062,-0.3086,-0.3127,-0.3147,-0.3168,-0.3196,-0.3229,-0.3265,-0.3304,-0.3314,-0.3334,-0.3353,-0.3356,-0.3368,-0.3378,-0.3374,-0.3377,-0.3379,-0.337,-0.337,-0.3371,-0.3371,0,0,-0.2915,-0.2987,-0.2991,-0.3015,-0.3067,-0.309,-0.3116,-0.3155,-0.3172,-0.3205,-0.3228,-0.3271,-0.3283,-0.3307,-0.333,-0.3344,-0.3347,-0.3355,-0.3356,-0.3353,-0.3372,-0.3362,-0.3363,-0.336,-0.336,-0.3361,-0.3369,0,-0.2917,-0.2967,-0.3002,-0.3038,-0.3066,-0.31,-0.3123,-0.3157,-0.3184,-0.3211,-0.324,-0.327,-0.3283,-0.3298,-0.3313,-0.3344,-0.3352,-0.3343,-0.3381,-0.3382,-0.3371,-0.3365,-0.3355,-0.3361,-0.337,-0.337,-0.3371,0,-0.2926,-0.2961,-0.3,-0.305,-0.3063,-0.3083,-0.3123,-0.3149,-0.3187,-0.3206,-0.3233,-0.3258,-0.3286,-0.3294,-0.3334,-0.3328,-0.3345,-0.3363,-0.3364,-0.3369,-0.3376,-0.337,-0.3363,-0.3364,-0.3373,-0.3373,-0.3373,0,-0.2901,-0.2957,-0.2989,-0.3008,-0.3067,-0.308,-0.3105,-0.3144,-0.3166,-0.32,-0.3215,-0.3251,-0.3271,-0.3298,-0.3332,-0.3334,-0.3369,-0.3379,-0.3385,-0.3384,-0.339,-0.339,-0.3387,-0.3401,-0.3401,-0.3401,-0.3401,0,-0.2899,-0.2922,-0.2979,-0.2998,-0.3025,-0.3064,-0.3089,-0.3117,-0.3152,-0.3177,-0.3207,-0.323,-0.3273,-0.33,-0.3327,-0.3356,-0.3365,-0.338,-0.3387,-0.3378,-0.3376,-0.339,-0.3391,-0.3401,-0.3401,-0.3401,-0.3401,0,-0.2876,-0.2915,-0.2951,-0.3005,-0.3019,-0.3036,-0.3081,-0.3101,-0.313,-0.3161,-0.317,-0.3215,-0.325,-0.3286,-0.3332,-0.335,-0.3378,-0.3388,-0.3366,-0.337,-0.3374,-0.3373,-0.338,-0.3383,-0.3394,-0.3394,-0.3394,0,-0.2873,-0.2892,-0.2948,-0.2967,-0.2992,-0.3023,-0.3046,-0.3085,-0.3108,-0.3155,-0.3169,-0.3206,-0.3237,-0.329,-0.3326,-0.3362,-0.3373,-0.3373,-0.3378,-0.3369,-0.3374,-0.3372,-0.3375,-0.3371,-0.3371,-0.337,-0.337,0,-0.2863,-0.2882,-0.2915,-0.2955,-0.2982,-0.3015,-0.3048,-0.3062,-0.3109,-0.3132,-0.3169,-0.3193,-0.3241,-0.3278,-0.3318,-0.3343,-0.3364,-0.3368,-0.3372,-0.3363,-0.335,-0.3358,-0.3362,-0.3368,-0.3368,-0.3368,-0.3368,-0.3368,-0.2851,-0.287,-0.2913,-0.2948,-0.2978,-0.301,-0.3031,-0.3064,-0.3095,-0.3139,-0.316,-0.3196,-0.3235,-0.3292,-0.3316,-0.3345,-0.3351,-0.3355,-0.3357,-0.3358,-0.3356,-0.3345,-0.3352,-0.3352,-0.3352,-0.3352,-0.3352,0,-0.2844,-0.2873,-0.2906,-0.2954,-0.2982,-0.3001,-0.304,-0.3062,-0.3094,-0.3129,-0.316,-0.3202,-0.3238,-0.3278,-0.3316,-0.3331,-0.3342,-0.334,-0.3339,-0.3345,-0.3347,-0.3341,-0.333,-0.333,-0.333,-0.333,-0.333,-0.333,-0.2844,-0.2877,-0.2901,-0.2949,-0.2978,-0.3016,-0.3036,-0.3065,-0.3094,-0.314,-0.3171,-0.3197,-0.3234,-0.3275,-0.3309,-0.3319,-0.3332,-0.3327,-0.3341,-0.3342,-0.3344,-0.3346,-0.334,-0.3329,-0.3329,-0.3336,-0.3336,-0.3336]},{"header":{"parameterUnit":"m.s-1","parameterCategory":1,"la1":30.2991,"la2":30.254,"lo1":-89.0895,"lo2":-89.0444,"dy":0.0017,"dx":0.0017,"nx":28,"ny":28,"refTime":"2025-03-12T21:00:00:Z","depth":0,"parameterNumber":3,"parameterNumberName":"V-component_of_WINDS"},"data":[0,0,0,0,0,0,0,0,0,0,0,0,0,0,0,0,0,0,0,0,0,0,0,0,0,0,0,0,0,0,0,0,0,0,0,0,0,0,0,0,0,0,0,0,0,0,0,0,0,0,0,0,0,0,0,0,0,0,2.6968,2.6969,0,2.7036,2.7037,2.7038,2.7061,2.7061,2.706,2.706,2.7132,2.7135,2.7137,0,0,0,0,0,0,0,0,0,0,0,0,0,2.6865,2.6866,2.6968,2.6969,2.697,2.7036,2.7037,2.7038,2.7061,2.7061,2.706,2.706,2.7132,2.7134,2.7137,0,0,0,0,0,0,0,0,0,0,0,0,0,2.6919,2.6867,2.6968,2.699,2.6992,2.7036,2.7037,2.7038,2.7061,2.7061,2.706,2.706,2.7131,2.7134,2.7137,2.7165,0,0,2.7147,2.7149,0,0,0,0,0,0,0,0,2.6916,2.6923,2.6986,2.6988,2.6991,2.704,2.7027,2.7081,2.7061,2.7035,2.706,2.706,2.7102,2.7108,2.7121,2.7169,2.7172,2.7147,2.7149,2.7151,2.7152,0,0,0,0,0,0,0,2.6912,2.692,2.6995,2.6986,2.699,2.6997,2.7005,2.7037,2.707,2.7037,2.7039,2.7047,2.7104,2.7118,2.7123,2.7173,2.7147,2.715,2.7152,2.7154,2.725,2.7251,0,0,0,0,0,0,2.6904,2.6917,2.6993,2.6997,2.6952,2.7,2.7008,2.7024,2.707,2.7076,2.7047,2.7047,2.7113,2.7119,2.7126,2.7163,2.7151,2.7154,2.7156,2.725,2.725,2.7251,0,0,0,0,0,0,2.6902,2.6911,2.699,2.6957,2.6968,2.7002,2.702,2.7026,2.7041,2.7077,2.7083,2.7055,2.7113,2.7121,2.7156,2.7166,2.7155,2.7158,2.7249,2.725,2.7251,2.7238,0,0,0,0,0,0,2.6899,2.691,2.6919,2.6957,2.697,2.7018,2.7021,2.7028,2.7046,2.7047,2.7087,2.7093,2.7113,2.7151,2.7159,2.7171,2.7161,2.7248,2.7249,2.725,2.7237,2.7238,2.7239,0,0,0,0,0,2.6895,2.6913,2.692,2.6929,2.6982,2.7018,2.7025,2.7047,2.7046,2.7058,2.7081,2.7092,2.7164,2.7154,2.7164,2.7176,2.7248,2.7249,2.725,2.7237,2.7238,2.7239,0,0,0,0,0,0,2.6876,2.6918,2.6926,2.6957,2.6984,2.7022,2.7036,2.7047,2.7075,2.7076,2.7103,2.7112,2.7145,2.7164,2.7153,2.7208,2.7207,2.721,2.7193,2.7194,2.7195,2.719,2.7164,0,0,0,0,0,2.6875,2.6899,2.6936,2.6959,2.6972,2.7002,2.7018,2.7033,2.7062,2.7074,2.71,2.713,2.7159,2.7178,2.7207,2.7241,2.7251,2.7254,2.7255,2.7255,2.7258,2.728,2.7282,2.7256,2.7256,2.7256,0,0,2.6874,2.69,2.6914,2.6956,2.6979,2.7005,2.7011,2.7038,2.7058,2.7079,2.7113,2.7134,2.7168,2.7203,2.722,2.722,2.7268,2.7257,2.7257,2.726,2.7281,2.7284,2.7286,2.7257,2.7256,2.7256,0,0,2.6885,2.6907,2.693,2.6953,2.6986,2.7007,2.7012,2.7049,2.7064,2.7099,2.7115,2.714,2.719,2.7215,2.7234,2.7257,2.7268,2.7266,2.7269,2.729,2.7292,2.7294,2.7304,2.7307,2.7269,2.7269,2.7269,0,2.688,2.6918,2.6941,2.6967,2.6986,2.7006,2.7031,2.7052,2.7094,2.7108,2.7108,2.7172,2.7196,2.7238,2.7244,2.7259,2.7268,2.7261,2.729,2.7292,2.7295,2.7304,2.7308,2.7268,2.7268,2.7268,2.7268,0,2.6911,2.6937,2.6952,2.6992,2.7013,2.7039,2.7067,2.7086,2.71,2.712,2.7157,2.7188,2.7224,2.7235,2.7249,2.728,2.728,2.7284,2.7284,2.7296,2.7306,2.731,2.7267,2.7268,2.7268,2.7268,0,0,2.691,2.6963,2.6969,2.6988,2.7028,2.705,2.7078,2.7113,2.7129,2.7159,2.7184,2.7227,2.7232,2.7254,2.7271,2.7289,2.7308,2.7292,2.7293,2.7295,2.7346,2.7343,2.7346,2.7316,2.7317,2.7317,2.7344,0,2.6927,2.6976,2.6998,2.7038,2.7064,2.7084,2.7109,2.7137,2.7158,2.7185,2.7208,2.7239,2.7243,2.7256,2.7275,2.7301,2.7319,2.73,2.7341,2.7342,2.7332,2.7351,2.7347,2.737,2.7348,2.7348,2.7349,0,2.6953,2.6982,2.7024,2.7063,2.7075,2.7096,2.7131,2.7156,2.719,2.7204,2.7229,2.7246,2.7278,2.7276,2.7322,2.7309,2.7328,2.7343,2.7345,2.735,2.7346,2.7357,2.7378,2.7382,2.7355,2.7354,2.7354,0,2.695,2.6999,2.7031,2.7047,2.7093,2.7108,2.7128,2.7161,2.7182,2.7214,2.7228,2.7263,2.7282,2.731,2.7337,2.7333,2.7381,2.7381,2.7395,2.7395,2.7404,2.7403,2.7429,2.7415,2.7415,2.7415,2.7415,0,2.6967,2.6992,2.7031,2.705,2.708,2.7107,2.7136,2.7158,2.7188,2.7214,2.7234,2.7258,2.7292,2.7321,2.7343,2.7379,2.7387,2.7401,2.7406,2.7399,2.7397,2.7411,2.7411,2.7416,2.7416,2.7416,2.7416,0,2.6967,2.6994,2.703,2.7072,2.7083,2.7103,2.7139,2.716,2.7183,2.7216,2.7225,2.7261,2.7297,2.7326,2.7373,2.7388,2.7426,2.7432,2.7414,2.7417,2.743,2.7429,2.7466,2.7473,2.7454,2.7454,2.7454,0,2.6976,2.6996,2.7039,2.7058,2.7077,2.7107,2.7128,2.7156,2.7178,2.722,2.7236,2.7273,2.7304,2.7361,2.7392,2.7429,2.7437,2.7447,2.7442,2.7435,2.7438,2.7437,2.744,2.7448,2.7448,2.7448,2.7448,0,2.6989,2.7002,2.7031,2.7066,2.709,2.7119,2.7149,2.7163,2.7197,2.7221,2.7258,2.7282,2.733,2.7368,2.7408,2.7431,2.7446,2.7449,2.7455,2.7448,2.7437,2.7444,2.7415,2.7448,2.7448,2.7448,2.7448,2.7448,2.6995,2.7014,2.7048,2.7081,2.7106,2.7134,2.7156,2.7182,2.7213,2.7253,2.7269,2.7307,2.7344,2.7399,2.7423,2.7454,2.7456,2.7464,2.7466,2.7467,2.7467,2.7432,2.7462,2.7462,2.7462,2.7462,2.7462,0,2.701,2.7034,2.7063,2.7104,2.713,2.7141,2.7175,2.7197,2.723,2.7262,2.7292,2.7336,2.7373,2.7408,2.7447,2.7466,2.7474,2.7475,2.7474,2.748,2.7462,2.7454,2.7468,2.7468,2.7468,2.7468,2.7468,2.7468,2.7021,2.7055,2.7072,2.712,2.7144,2.718,2.7199,2.7226,2.7251,2.7299,2.7329,2.7352,2.7386,2.7428,2.7464,2.7474,2.7488,2.7487,2.7499,2.7482,2.7481,2.748,2.7472,2.749,2.749,2.7514,2.7514,2.7514]}]]